Location: Newark
(48.7875°N, 2.3928°E)
Time: 12:19:32
(UTC+00:00)

N. Korean satellite - Pass Details

Date: 24 October 2019
Orbit: 456 x 506 km, 97.2° (Epoch: 21 November)

Event Time Altitude Azimuth Distance (km) Brightness Sun altitude
Rises 04:38:49 0° 31° (NNE) 2,574 10.7 -17.9°
Reaches altitude 10° 04:41:54 10° 61° (ENE) 1,697 10.3 -17.4°
Maximum altitude 04:43:38 13° 89° (E) 1,521 10.3 -17.1°
Drops below altitude 10° 04:45:23 10° 118° (ESE) 1,701 10.2 -16.8°
Sets 04:48:28 0° 147° (SSE) 2,586 10.7 -16.3°
